Flag for Lithuania Weather past 2 weeks in Vilnius, Lithuania

Now
43 °F

Sunny.


Feels Like: 43 °F
Forecast: 38 / 67 °F
Wind: 2 mph from North

Location: Vilnius Airport


UV Index: 3 (Moderate)

Visibility: 10 mi


Pressure: 30.27 "Hg

Humidity: 49%

Dew point: 25 °F

Location of VilniusLocation

Historic Weather in Vilnius

°F

Vilnius temperature yesterday

Maximum temperature yesterday: 57 °F (at 2:50 PM)
Minimum temperature yesterday: 39 °F (at 6:20 AM)
Average temperature yesterday: 49 °F

Past Weeks' High & Low Weather Summary

 TemperatureHumidityPressure
High72 °F (Apr 20, 2:20 PM)100% (Apr 10, 7:20 AM)30.36 "Hg (Apr 10, 7:20 AM)
Low30 °F (Apr 17, 5:20 AM)26% (Apr 17, 2:50 PM)29.56 "Hg (Apr 14, 2:50 PM)
Average49 °F61%30.04 "Hg
* Reported Apr 10 6:20 AM — Apr 25 6:20 AM, Vilnius, Weather by CustomWeather, © 2014

Note: Actual official high and low records may vary slightly from our data, if they occured in-between our weather recording intervals... More about our weather records

Advertising

Historic Weather Conditions — Data for Previous 24 hours

 ConditionsComfort  
Time TempWeatherWind HumidityBarometerVisibility
6:20 AM
Apr 25
37 °FClear.2 mph56%30.27 "Hg10 mi
5:50 AM36 °FClear.2 mph60%30.27 "Hg10 mi
5:20 AM37 °FClear.2 mph56%30.27 "Hg10 mi
4:50 AM37 °FClear.2 mph56%30.27 "Hg10 mi
4:20 AM39 °FClear.2 mph52%30.30 "Hg10 mi
3:50 AM37 °FClear.2 mph56%30.30 "Hg10 mi
3:20 AM39 °FClear.1 mph52%30.30 "Hg10 mi
2:20 AM41 °FClear.3 mph49%30.30 "Hg10 mi
1:50 AM41 °FClear.1 mph49%30.30 "Hg10 mi
1:20 AM43 °FClear.2 mph46%30.30 "Hg10 mi
12:50 AM43 °FClear.2 mph46%30.30 "Hg10 mi
12:20 AM43 °FClear.2 mph49%30.30 "Hg10 mi
11:50 PM
Apr 24
43 °FClear.5 mph49%30.30 "Hg10 mi
11:20 PM43 °FClear.6 mph49%30.30 "Hg10 mi
10:50 PM45 °FClear.5 mph46%30.30 "Hg10 mi
10:20 PM45 °FClear.6 mph46%30.30 "Hg10 mi
9:50 PM45 °FClear.6 mph46%30.30 "Hg10 mi
9:20 PM46 °FSunny.5 mph43%30.30 "Hg10 mi
8:50 PM48 °FSunny.6 mph40%30.30 "Hg10 mi
8:20 PM50 °FSunny.5 mph35%30.30 "Hg10 mi
7:50 PM54 °FSunny.6 mph33%30.27 "Hg10 mi
7:20 PM55 °FSunny.7 mph31%30.27 "Hg10 mi
6:50 PM55 °FPassing clouds.8 mph31%30.30 "HgN/A
6:20 PM57 °FSunny.8 mph29%30.30 "Hg10 mi
5:50 PM57 °FPassing clouds.7 mph29%30.30 "HgN/A
5:20 PM57 °FPassing clouds.9 mph27%30.30 "HgN/A
4:50 PM57 °FPassing clouds.10 mph27%30.30 "HgN/A
4:20 PM57 °FPassing clouds.9 mph27%30.30 "HgN/A
3:50 PM57 °FPassing clouds.9 mph29%30.33 "HgN/A
3:20 PM57 °FPassing clouds.12 mph27%30.33 "HgN/A
2:50 PM57 °FPassing clouds.12 mph29%30.33 "HgN/A
2:20 PM55 °FPassing clouds.9 mph28%30.33 "HgN/A
1:50 PM55 °FPassing clouds.10 mph28%30.33 "HgN/A
1:20 PM55 °FPassing clouds.8 mph26%30.36 "HgN/A
12:50 PM54 °FPassing clouds.12 mph30%30.36 "HgN/A
12:20 PM54 °FPassing clouds.10 mph28%30.36 "HgN/A
11:50 AM54 °FPassing clouds.12 mph33%30.36 "HgN/A
11:20 AM52 °FPassing clouds.10 mph32%30.36 "HgN/A
10:50 AM50 °FPassing clouds.10 mph35%30.36 "HgN/A
10:20 AM48 °FPassing clouds.10 mph37%30.36 "HgN/A
9:50 AM46 °FPassing clouds.12 mph40%30.36 "HgN/A
9:20 AM45 °FPassing clouds.10 mph39%30.36 "HgN/A
8:50 AM43 °FSunny.10 mph42%30.36 "Hg10 mi
8:20 AM43 °FPassing clouds.10 mph39%30.33 "HgN/A
7:50 AM41 °FPassing clouds.8 mph42%30.33 "HgN/A
7:20 AM41 °FSunny.8 mph42%30.33 "Hg10 mi
Weather by CustomWeather, © 2014

See weather overview